Weather in Scottsdale

United States     33°37′58″N   111°51′22″W
В апреле 2022 года жителям России запретили посещать сайт meteo.paraplan.net по решению Генеральной прокуратуры. Аудитория сайта уменьшилась в 10 раз. Владельцы сайта не видят смысла в поддержке погодного сервера в таких условиях. Сайт будет закрыт в октябре.
temp.,
°C
wind,
m/s
gust,
m/s
humid.,
%
clouds,
%
prec.,
mm/h
press.,
hPa
HPBL,
m
4 october, tue
tue423:00+21n46562 1.9 1013155
02:00+20nne345893 0.0 1013102
05:00+20nne33533 0.0 101353
08:00+21nne33465 0.0 1014194
11:00+26ene01342 0.0 10141022
14:00+29sw32280 0.0 10112073
17:00+29w12241 0.0 10102181
20:00+27sse222934 0.0 101218
5 october, wed
wed523:00+23s25495 0.0 1014273
02:00+22nne22513 0.0 101420
05:00+21ne11532 0.0 101412
08:00+23ne11474 0.0 1015205
11:00+27wsw11361 0.0 10141001
14:00+30sw43274 0.0 10121777
17:00+29wsw652774 0.0 10111615
20:00+27se113640 0.1 101312
6 october, thu
thu623:00+24e114239 0.1 101411
02:00+23ne22455 0.1 101413
05:00+22nne33424 0.1 101522
08:00+23ne23335 0.0 1016153
11:00+28se11285 0.0 10161116
14:00+30sw222392 0.0 10132379
17:00+30e232132 0.0 10122448
20:00+27ne343198 0.0 1014121
7 october, fri
fri723:00+25e223972 0.3 101638
02:00+23ne334845 0.0 101784
05:00+21ne44535 0.0 101774
08:00+23ne45459 0.0 1018233
11:00+28e463057 0.0 10171892
14:00+30ese562684 0.0 10143063
17:00+21n91059100 1.5 1016356
20:00+22ne61052100 1.5 1016290
8 october, sat
sat823:00+22ne575593 1.5 1017147
02:00+21nne3355100 0.3 101741
05:00+20nne4455100 0.3 101747
08:00+22ne474769 0.0 1018398
11:00+27ese563364 0.0 10172056
14:00+28sse553152 0.0 10142485
17:00+27sse333348 0.1 10131670
20:00+21n695873 0.4 1016347